Tracking 31027 objects as of 19-Jul-2025
HD Live streaming from Space Station
objects crossing your sky now

STARLINK-4216

Track STARLINK-4216 now!
10-day predictions
STARLINK-4216 is classified as:


NORAD ID: 53022
Int'l Code: 2022-076AN
Perigee: 545.7 km
Apogee: 548.0 km
Inclination: 53.2 °
Period: 95.4 minutes
Semi major axis: 6917 km
RCS: Unknown
Launch date: July 7, 2022
Source: United States (US)
Launch site: AIR FORCE EASTERN TEST RANGE (AFETR)
Your satellite tracking list
IRIDIUM 135
Track 1 satellite(s)




NASA's NSSDC Master Catalog

Two Line Element Set (TLE):
1 53022U 22076AN  25199.85181732 -.00000842  00000-0 -34815-4 0  9991
2 53022  53.2188  53.8590 0001657  87.9007 272.2175 15.08845521167684
Source of the keplerian elements: AFSPC